Copper Mountain, CO

12:05 PM MDT on June 22, 2017 (GMT -0600)
Copper Mountain

Weather History for KCCU - October, 2011

Change the Weather History Date:

Wednesday, October 12, 2011

  Actual Average Record
Temperature  
Mean Temperature 34 °F -  
Max Temperature 41 °F - 55 °F (2007)
Min Temperature 28 °F - 8 °F (2001)
Degree Days  
Heating Degree Days 30    
Month to date heating degree days  
Cooling Degree Days 0    
Month to date cooling degree days  
Moisture  
Dew Point 20 °F    
Average Humidity 62    
Maximum Humidity 87    
Minimum Humidity 31    
Precipitation  
Precipitation 0.01 in - 0.05 in (2012)
Sea Level Pressure  
Sea Level Pressure 30.34 in    
Wind  
Wind Speed 26 mph (West)    
Max Wind Speed 37 mph    
Max Gust Speed 50 mph    
Visibility 8 miles    
Events Snow    
T = Trace of Precipitation, MM = Missing Value Source: NWS Daily Summary

Daily Weather History Graph

Daily Weather History Graph

Search for Another Location

Airport or City:

Trip Planner

Search our weather history database for the weather conditions in past years. The results will help you decide how hot, cold, wet, or windy it might be!

Date:

Astronomy

Oct. 12, 2011 Rise Set
Actual Time 7:11 AM MDT 6:30 PM MDT
Civil Twilight 6:44 AM MDT 6:57 PM MDT
Nautical Twilight 6:13 AM MDT 7:28 PM MDT
Astronomical Twilight 5:42 AM MDT 7:59 PM MDT
Moon 6:34 PM MDT (10/12) 7:48 AM MDT (10/12)
Length of Visible Light 12h 12m
Length of Day
11h 19m
Full, 100% of the Moon is Illuminated
Oct 12
Full
Oct 19
Last Quarter
Oct 26
New
Nov 2
First Quarter
Nov 10
Full

Hourly Weather History & Observations

Time (MDT) Temp. Windchill Dew Point Humidity Pressure Visibility Wind Dir Wind Speed Gust Speed Precip Events Conditions
12:07 AM 32.0 °F 19.8 °F 26.6 °F 80% 30.23 in 7.0 mi West 20.7 mph 41.4 mph N/A   Overcast
12:27 AM 32.0 °F 18.9 °F 26.6 °F 80% 30.23 in 2.0 mi West 24.2 mph 33.4 mph N/A Snow Light Snow
12:47 AM 32.0 °F 18.1 °F 26.6 °F 80% 30.22 in 0.8 mi West 27.6 mph 49.5 mph N/A Snow Light Snow
1:27 AM 32.0 °F 17.6 °F 28.4 °F 87% 30.24 in 2.5 mi West 29.9 mph 43.7 mph N/A   Haze
1:47 AM 32.0 °F 18.1 °F 28.4 °F 87% 30.24 in 10.0 mi West 27.6 mph 35.7 mph N/A   Overcast
2:07 AM 32.0 °F 16.5 °F 28.4 °F 87% 30.24 in 4.0 mi West 35.7 mph 46.0 mph N/A   Haze
2:27 AM 32.0 °F 16.5 °F 28.4 °F 87% 30.26 in 0.2 mi West 35.7 mph 47.2 mph N/A Snow Snow
2:47 AM 32.0 °F 16.7 °F 26.6 °F 80% 30.26 in 1.5 mi West 34.5 mph 49.5 mph N/A Snow Light Snow
3:07 AM 32.0 °F 16.3 °F 26.6 °F 80% 30.25 in 2.0 mi West 36.8 mph 47.2 mph N/A   Haze
3:27 AM 32.0 °F 18.6 °F 26.6 °F 80% 30.27 in 4.0 mi West 25.3 mph 44.9 mph N/A   Haze
4:07 AM 32.0 °F 18.9 °F 24.8 °F 75% 30.27 in 5.0 mi West 24.2 mph 46.0 mph N/A   Haze
4:27 AM 30.2 °F 15.7 °F 23.0 °F 75% 30.27 in 7.0 mi West 27.6 mph 46.0 mph N/A   Overcast
4:47 AM 30.2 °F 14.3 °F 23.0 °F 75% 30.27 in 10.0 mi West 34.5 mph 40.3 mph N/A   Overcast
5:07 AM 30.2 °F 14.3 °F 23.0 °F 75% 30.27 in 10.0 mi West 34.5 mph - N/A   Overcast
5:27 AM 30.2 °F 15.9 °F 24.8 °F 80% 30.28 in 10.0 mi West 26.5 mph 34.5 mph N/A   Overcast
5:47 AM 30.2 °F 17.1 °F 24.8 °F 80% 30.29 in 7.0 mi West 21.9 mph 34.5 mph N/A   Overcast
6:07 AM 28.4 °F 15.1 °F 23.0 °F 80% 30.30 in 3.0 mi West 20.7 mph 35.7 mph N/A   Haze
6:27 AM 28.4 °F 15.1 °F 23.0 °F 80% 30.31 in 7.0 mi West 20.7 mph 31.1 mph N/A   Overcast
6:47 AM 28.4 °F 15.1 °F 23.0 °F 80% 30.33 in 10.0 mi West 20.7 mph 29.9 mph N/A   Overcast
7:07 AM 28.4 °F 13.5 °F 23.0 °F 80% 30.32 in 10.0 mi West 26.5 mph 33.4 mph N/A   Overcast
7:27 AM 28.4 °F 14.1 °F 23.0 °F 80% 30.33 in 10.0 mi West 24.2 mph 31.1 mph N/A   Overcast
7:47 AM 28.4 °F 14.4 °F 23.0 °F 80% 30.33 in 10.0 mi West 23.0 mph 32.2 mph N/A   Overcast
8:47 AM 28.4 °F 13.3 °F 23.0 °F 80% 30.35 in 10.0 mi West 27.6 mph 35.7 mph N/A   Overcast
9:07 AM 28.4 °F 14.4 °F 23.0 °F 80% 30.36 in 10.0 mi West 23.0 mph 39.1 mph N/A   Overcast
9:27 AM 28.4 °F 13.8 °F 23.0 °F 80% 30.36 in 10.0 mi West 25.3 mph 43.7 mph N/A   Overcast
9:47 AM 30.2 °F 17.1 °F 23.0 °F 75% 30.36 in 10.0 mi West 21.9 mph 40.3 mph N/A   Overcast
10:07 AM 30.2 °F 18.9 °F 23.0 °F 75% 30.38 in 10.0 mi West 16.1 mph 33.4 mph N/A   Overcast
10:27 AM 32.0 °F 19.5 °F 23.0 °F 69% 30.38 in 10.0 mi West 21.9 mph 29.9 mph N/A   Overcast
11:07 AM 33.8 °F 21.3 °F 21.2 °F 60% 30.38 in 10.0 mi West 24.2 mph 31.1 mph N/A   Mostly Cloudy
11:27 AM 33.8 °F 21.9 °F 21.2 °F 60% 30.38 in 10.0 mi West 21.9 mph 35.7 mph N/A   Scattered Clouds
11:34 AM 33.8 °F 22.8 °F 19.4 °F 56% 30.39 in 10.0 mi West 18.4 mph 31.1 mph N/A   Scattered Clouds
12:07 PM 35.6 °F 24.5 °F 19.4 °F 52% 30.40 in 10.0 mi West 20.7 mph 32.2 mph N/A   Clear
12:27 PM 35.6 °F 22.7 °F 15.8 °F 44% 30.40 in 10.0 mi West 28.8 mph 38.0 mph N/A   Clear
12:47 PM 35.6 °F 24.0 °F 15.8 °F 44% 30.40 in 10.0 mi West 23.0 mph 39.1 mph N/A   Clear
1:07 PM 37.4 °F 24.6 °F 14.0 °F 38% 30.39 in 10.0 mi West 32.2 mph 39.1 mph N/A   Clear
1:27 PM 37.4 °F 26.9 °F 17.6 °F 45% 30.40 in 10.0 mi West 20.7 mph 41.4 mph N/A   Clear
1:47 PM 37.4 °F 26.1 °F 14.0 °F 38% 30.38 in 10.0 mi West 24.2 mph 35.7 mph N/A   Clear
2:07 PM 37.4 °F 26.1 °F 14.0 °F 38% 30.38 in 10.0 mi West 24.2 mph 35.7 mph N/A   Clear
2:27 PM 37.4 °F 26.4 °F 14.0 °F 38% 30.39 in 10.0 mi West 23.0 mph 36.8 mph N/A   Clear
2:47 PM 37.4 °F 25.4 °F 12.2 °F 36% 30.40 in 10.0 mi West 27.6 mph 35.7 mph N/A   Clear
3:07 PM 37.4 °F 26.4 °F 12.2 °F 36% 30.40 in 10.0 mi West 23.0 mph 36.8 mph N/A   Clear
3:27 PM 39.2 °F 27.4 °F 12.2 °F 33% 30.40 in 10.0 mi West 29.9 mph 38.0 mph N/A   Clear
3:47 PM 41.0 °F 30.5 °F 12.2 °F 31% 30.41 in 10.0 mi West 26.5 mph 33.4 mph 0.01 in   Clear
4:07 PM 37.4 °F 26.1 °F 12.2 °F 36% 30.41 in 10.0 mi WNW 24.2 mph 35.7 mph N/A   Clear
4:25 PM 41.0 °F 31.9 °F 14.0 °F 33% 30.42 in 10.0 mi West 19.6 mph 28.8 mph N/A   Clear
4:47 PM 39.2 °F 29.0 °F 12.2 °F 33% 30.42 in 10.0 mi West 21.9 mph 27.6 mph N/A   Clear
5:07 PM 37.4 °F 25.9 °F 12.2 °F 36% 30.42 in 10.0 mi West 25.3 mph 34.5 mph N/A   Clear
5:26 PM 37.4 °F 25.9 °F 10.4 °F 33% 30.42 in 10.0 mi West 25.3 mph 32.2 mph N/A   Clear
5:47 PM 37.4 °F 25.9 °F 12.2 °F 36% 30.43 in 10.0 mi West 25.3 mph - N/A   Clear
6:07 PM 37.4 °F 27.5 °F 12.2 °F 36% 30.44 in 10.0 mi West 18.4 mph 25.3 mph N/A   Clear
6:27 PM 35.6 °F 25.9 °F 10.4 °F 35% 30.44 in 10.0 mi West 16.1 mph 28.8 mph N/A   Clear
6:47 PM 35.6 °F 27.5 °F 10.4 °F 35% 30.44 in 10.0 mi WSW 11.5 mph 23.0 mph N/A   Clear
7:27 PM 33.8 °F 23.5 °F 10.4 °F 38% 30.44 in 10.0 mi WSW 16.1 mph 28.8 mph N/A   Clear
7:47 PM 33.8 °F 21.9 °F 10.4 °F 38% 30.44 in 10.0 mi West 21.9 mph 29.9 mph N/A   Clear
8:07 PM 33.8 °F 22.5 °F 10.4 °F 38% 30.44 in 10.0 mi West 19.6 mph 24.2 mph N/A   Clear
8:27 PM 33.8 °F 23.9 °F 12.2 °F 41% 30.45 in 10.0 mi West 15.0 mph 20.7 mph N/A   Clear
8:47 PM 33.8 °F 26.4 °F 14.0 °F 44% 30.46 in 10.0 mi WSW 9.2 mph 18.4 mph N/A   Clear
9:07 PM 33.8 °F 24.3 °F 14.0 °F 44% 30.46 in 10.0 mi West 13.8 mph 20.7 mph N/A   Clear
9:27 PM 33.8 °F 29.6 °F 15.8 °F 48% 30.46 in 10.0 mi SW 4.6 mph 11.5 mph N/A   Clear
9:47 PM 33.8 °F 25.8 °F 17.6 °F 52% 30.46 in 10.0 mi West 10.4 mph - N/A   Clear
10:07 PM 33.8 °F 23.9 °F 15.8 °F 48% 30.46 in 10.0 mi West 15.0 mph - N/A   Clear
10:27 PM 33.8 °F 22.2 °F 15.8 °F 48% 30.45 in 10.0 mi West 20.7 mph 25.3 mph N/A   Clear
10:47 PM 33.8 °F 22.2 °F 14.0 °F 44% 30.46 in 10.0 mi West 20.7 mph 27.6 mph N/A   Clear
11:27 PM 33.8 °F 21.6 °F 12.2 °F 41% 30.46 in 10.0 mi West 23.0 mph 28.8 mph N/A   Clear
11:47 PM 33.8 °F 22.2 °F 10.4 °F 38% 30.46 in 10.0 mi West 20.7 mph - N/A   Clear